Terminal Aerodrome Forecast
Issued by NWS

Home | Current Version | Previous Version | Graphics & Text | Print | Product List | Glossary On
Versions: 1 2 3 4 5 6 7 8 9 10 11 12
000
FTUS45 KGGW 201700
TAFSDY
TAF
KSDY 201736Z 2018/2118 18007KT 6SM BR BKN017
     FM202000 18007KT P6SM BKN025
     FM210900 24008KT P6SM BKN100
     FM211500 25012KT P6SM BKN120
      AMD LTD TO CLD VIS AND WIND=

USA.gov is the U.S. government's official web portal to all federal, state and local government web resources and services.